[[{"header":{"parameterUnit":"m.s-1","parameterCategory":1,"la1":30.2991,"la2":30.254,"lo1":-89.0895,"lo2":-89.0444,"dy":0.0017,"dx":0.0017,"nx":28,"ny":28,"refTime":"2023-11-15T09:00:00:Z","depth":0,"parameterNumber":2,"parameterNumberName":"U-component_of_WINDS"},"data":[0,0,0,0,0,0,0,0,0,0,0,0,0,0,0,0,0,0,0,0,0,0,0,0,0,0,0,0,0,0,0,0,0,0,0,0,0,0,0,0,0,0,0,0,0,0,0,0,0,0,0,0,0,0,0,0,0,0,-3.9282,-3.9283,0,-3.9393,-3.9394,-3.9395,-3.9314,-3.931,-3.9307,-3.9303,-3.9422,-3.9428,-3.9435,0,0,0,0,0,0,0,0,0,0,0,0,0,-3.9005,-3.901,-3.9282,-3.9283,-3.9284,-3.9392,-3.9394,-3.9396,-3.9314,-3.931,-3.9306,-3.9302,-3.942,-3.9428,-3.9436,0,0,0,0,0,0,0,0,0,0,0,0,0,-3.9122,-3.9012,-3.9281,-3.9257,-3.9256,-3.9392,-3.9394,-3.9396,-3.9315,-3.931,-3.9305,-3.9299,-3.9417,-3.9427,-3.9437,-3.9605,0,0,-3.9466,-3.9471,0,0,0,0,0,0,0,0,-3.9115,-3.9132,-3.9259,-3.9259,-3.9258,-3.9334,-3.934,-3.9466,-3.9317,-3.9293,-3.9303,-3.9297,-3.9397,-3.9409,-3.9441,-3.961,-3.9616,-3.9467,-3.9473,-3.9477,-3.948,0,0,0,0,0,0,0,-3.9107,-3.9127,-3.9326,-3.9261,-3.926,-3.9242,-3.9253,-3.9363,-3.9374,-3.9295,-3.9289,-3.9303,-3.9396,-3.9432,-3.9444,-3.9617,-3.9467,-3.9476,-3.9482,-3.9486,-3.9933,-3.9939,0,0,0,0,0,0,-3.91,-3.912,-3.9322,-3.9329,-3.9171,-3.9251,-3.9263,-3.9315,-3.9373,-3.9376,-3.9307,-3.9299,-3.9418,-3.9432,-3.9447,-3.9651,-3.9477,-3.9487,-3.9492,-3.9927,-3.9934,-3.9941,0,0,0,0,0,0,-3.9095,-3.9119,-3.9318,-3.9223,-3.9247,-3.9262,-3.9321,-3.932,-3.9356,-3.9382,-3.9384,-3.9342,-3.9414,-3.9434,-3.9567,-3.9654,-3.9491,-3.95,-3.992,-3.9929,-3.9938,-4.0058,0,0,0,0,0,0,-3.9087,-3.9118,-3.918,-3.9225,-3.9252,-3.9434,-3.9326,-3.9326,-3.9372,-3.9362,-3.9415,-3.9419,-3.9412,-3.9553,-3.9576,-3.9664,-3.9507,-3.9912,-3.9924,-3.9935,-4.0046,-4.007,-4.009,0,0,0,0,0,-3.9078,-3.921,-3.9184,-3.9209,-3.9331,-3.9439,-3.9455,-3.9442,-3.9379,-3.9444,-3.9461,-3.9417,-3.964,-3.9567,-3.9593,-3.9685,-3.9907,-3.9921,-3.9934,-4.0036,-4.0065,-4.0089,0,0,0,0,0,0,-3.9177,-3.9216,-3.9187,-3.9338,-3.9386,-3.9425,-3.9506,-3.9472,-3.954,-3.9528,-3.9511,-3.9523,-3.9664,-3.9687,-3.9605,-3.9852,-3.9764,-3.9783,-3.9832,-3.986,-3.9881,-3.9874,-3.9516,0,0,0,0,0,-3.9216,-3.9299,-3.9329,-3.9459,-3.9484,-3.9491,-3.9538,-3.9523,-3.9573,-3.9593,-3.962,-3.9671,-3.9753,-3.9807,-3.9883,-4.0048,-4.006,-4.0124,-4.0146,-4.0164,-4.0182,-4.0274,-4.0304,-3.9985,-3.9985,-3.9985,0,0,-3.9299,-3.933,-3.9384,-3.948,-3.9515,-3.9604,-3.9509,-3.9606,-3.9672,-3.9608,-3.9736,-3.9758,-3.9814,-3.9964,-4.0032,-3.9988,-4.0273,-4.0181,-4.0195,-4.0204,-4.0291,-4.0321,-4.0348,-3.9995,-3.9993,-3.9992,0,0,-3.9495,-3.9525,-3.9639,-3.9676,-3.973,-3.9734,-3.9761,-3.9806,-3.9817,-3.9944,-3.99,-3.9979,-4.0118,-4.0161,-4.0201,-4.0414,-4.0378,-4.0439,-4.0555,-4.0645,-4.067,-4.0693,-4.0772,-4.08,-4.0457,-4.0457,-4.0457,0,-3.9592,-3.9721,-3.9701,-3.9802,-3.9847,-3.9792,-3.9908,-3.9946,-4.0023,-4.0056,-4.0005,-4.0181,-4.0215,-4.0376,-4.0428,-4.0461,-4.0494,-4.0435,-4.0668,-4.069,-4.0711,-4.0786,-4.0816,-4.0464,-4.0464,-4.0463,-4.0462,0,-3.9839,-3.9929,-4.0014,-4.0089,-4.0143,-4.0251,-4.025,-4.0308,-4.0289,-4.0299,-4.0431,-4.0469,-4.0553,-4.0589,-4.0572,-4.0749,-4.0721,-4.0669,-4.0581,-4.0749,-4.082,-4.0848,-4.0475,-4.0472,-4.047,-4.0468,0,0,-4.0103,-4.0165,-4.0197,-4.0231,-4.0287,-4.0358,-4.0464,-4.0545,-4.0596,-4.0651,-4.0742,-4.0862,-4.0815,-4.0861,-4.0848,-4.0926,-4.1097,-4.0865,-4.0866,-4.091,-4.1298,-4.1339,-4.1372,-4.1071,-4.1076,-4.1081,-4.1294,0,-4.0304,-4.0488,-4.0474,-4.0648,-4.0734,-4.0683,-4.0776,-4.0821,-4.0833,-4.0909,-4.0922,-4.1009,-4.0938,-4.0966,-4.1041,-4.106,-4.1175,-4.1044,-4.1159,-4.1163,-4.115,-4.1409,-4.1452,-4.1652,-4.1321,-4.1326,-4.1329,0,-4.0564,-4.0627,-4.0811,-4.0855,-4.089,-4.0974,-4.1048,-4.112,-4.1172,-4.1175,-4.1226,-4.12,-4.131,-4.1216,-4.1369,-4.1281,-4.1326,-4.1343,-4.135,-4.1364,-4.1259,-4.1433,-4.1715,-4.1746,-4.1372,-4.1369,-4.1366,0,-4.0743,-4.0873,-4.1,-4.1031,-4.1085,-4.1146,-4.1172,-4.1217,-4.1268,-4.1333,-4.1366,-4.1443,-4.1487,-4.1548,-4.1545,-4.1476,-4.1702,-4.1607,-4.1711,-4.1711,-4.1763,-4.1761,-4.2061,-4.1787,-4.1787,-4.1786,-4.1786,0,-4.0971,-4.1086,-4.1082,-4.116,-4.1288,-4.1271,-4.1399,-4.1418,-4.146,-4.1543,-4.1503,-4.1582,-4.1571,-4.1652,-4.165,-4.1779,-4.1798,-4.1806,-4.1805,-4.1812,-4.1812,-4.1845,-4.1832,-4.1794,-4.1792,-4.1791,-4.1789,0,-4.1194,-4.1195,-4.1331,-4.137,-4.1383,-4.1476,-4.1511,-4.1587,-4.1595,-4.1701,-4.1725,-4.1739,-4.1832,-4.1833,-4.194,-4.1939,-4.2098,-4.2079,-4.208,-4.2078,-4.2183,-4.2175,-4.2518,-4.2564,-4.2257,-4.226,-4.2262,0,-4.1342,-4.1429,-4.1478,-4.153,-4.1559,-4.1644,-4.1694,-4.1681,-4.1736,-4.1802,-4.1871,-4.1959,-4.203,-4.2181,-4.2202,-4.2284,-4.2269,-4.2384,-4.2282,-4.2287,-4.2276,-4.2272,-4.2282,-4.2405,-4.2408,-4.2411,-4.2413,0,-4.1605,-4.1601,-4.1675,-4.175,-4.1812,-4.187,-4.1925,-4.197,-4.1963,-4.2028,-4.2121,-4.2176,-4.2284,-4.2374,-4.2454,-4.2482,-4.2449,-4.2445,-4.2474,-4.2484,-4.2483,-4.2489,-4.2139,-4.2438,-4.2435,-4.2434,-4.2432,-4.2431,-4.1797,-4.1873,-4.192,-4.2004,-4.2043,-4.2095,-4.2169,-4.2186,-4.2263,-4.235,-4.2337,-4.2443,-4.2494,-4.2597,-4.2632,-4.2716,-4.2677,-4.2718,-4.2729,-4.2741,-4.2754,-4.2466,-4.273,-4.2729,-4.2729,-4.2728,-4.2727,0,-4.2061,-4.2088,-4.2166,-4.2243,-4.231,-4.2269,-4.2327,-4.2387,-4.248,-4.2529,-4.2599,-4.2708,-4.2795,-4.2823,-4.2908,-4.297,-4.2957,-4.2993,-4.2991,-4.2999,-4.2782,-4.275,-4.3003,-4.3003,-4.3003,-4.3002,-4.3002,-4.3002,-4.2207,-4.2334,-4.2336,-4.2484,-4.251,-4.2612,-4.265,-4.2698,-4.2738,-4.2861,-4.2933,-4.2949,-4.2991,-4.3079,-4.3158,-4.3164,-4.3199,-4.3242,-4.3243,-4.3041,-4.3013,-4.2987,-4.2957,-4.3249,-4.3249,-4.3452,-4.3454,-4.3456]},{"header":{"parameterUnit":"m.s-1","parameterCategory":1,"la1":30.2991,"la2":30.254,"lo1":-89.0895,"lo2":-89.0444,"dy":0.0017,"dx":0.0017,"nx":28,"ny":28,"refTime":"2023-11-15T09:00:00:Z","depth":0,"parameterNumber":3,"parameterNumberName":"V-component_of_WINDS"},"data":[0,0,0,0,0,0,0,0,0,0,0,0,0,0,0,0,0,0,0,0,0,0,0,0,0,0,0,0,0,0,0,0,0,0,0,0,0,0,0,0,0,0,0,0,0,0,0,0,0,0,0,0,0,0,0,0,0,0,-4.5819,-4.5818,0,-4.5779,-4.5779,-4.5778,-4.568,-4.5678,-4.5676,-4.5674,-4.5635,-4.5636,-4.5637,0,0,0,0,0,0,0,0,0,0,0,0,0,-4.581,-4.5811,-4.5819,-4.5818,-4.5818,-4.5779,-4.5779,-4.5778,-4.5681,-4.5678,-4.5676,-4.5673,-4.5635,-4.5636,-4.5637,0,0,0,0,0,0,0,0,0,0,0,0,0,-4.5797,-4.5811,-4.5819,-4.5765,-4.5759,-4.5779,-4.5779,-4.5778,-4.5681,-4.5678,-4.5675,-4.5672,-4.5634,-4.5636,-4.5637,-4.5707,0,0,-4.5641,-4.5641,0,0,0,0,0,0,0,0,-4.5798,-4.5797,-4.5773,-4.5768,-4.5762,-4.5731,-4.5761,-4.5754,-4.5682,-4.5711,-4.5674,-4.5671,-4.567,-4.5668,-4.5667,-4.5705,-4.5703,-4.5641,-4.5642,-4.5642,-4.5643,0,0,0,0,0,0,0,-4.5799,-4.5798,-4.5803,-4.5773,-4.5766,-4.5742,-4.5737,-4.5759,-4.5708,-4.5708,-4.5701,-4.5698,-4.5666,-4.5666,-4.5666,-4.5703,-4.5641,-4.5642,-4.5643,-4.5643,-4.5794,-4.5797,0,0,0,0,0,0,-4.5807,-4.58,-4.5804,-4.5802,-4.5773,-4.5745,-4.5739,-4.5745,-4.5708,-4.5699,-4.57,-4.5693,-4.5666,-4.5664,-4.5664,-4.5742,-4.5642,-4.5644,-4.5644,-4.579,-4.5794,-4.5798,0,0,0,0,0,0,-4.5808,-4.5809,-4.5806,-4.5799,-4.5797,-4.5748,-4.5756,-4.5745,-4.5745,-4.5702,-4.5692,-4.571,-4.5663,-4.5662,-4.5696,-4.5739,-4.5644,-4.5645,-4.5787,-4.5792,-4.5796,-4.59,0,0,0,0,0,0,-4.5808,-4.5809,-4.5836,-4.58,-4.5797,-4.584,-4.5758,-4.5747,-4.5748,-4.5738,-4.5708,-4.57,-4.5661,-4.5695,-4.5698,-4.5739,-4.5646,-4.5783,-4.5789,-4.5795,-4.5893,-4.5908,-4.5921,0,0,0,0,0,-4.5808,-4.5867,-4.5837,-4.5839,-4.5829,-4.5842,-4.5841,-4.5794,-4.5752,-4.5777,-4.5749,-4.5701,-4.5734,-4.5699,-4.5701,-4.5744,-4.578,-4.5787,-4.5794,-4.5886,-4.5905,-4.5921,0,0,0,0,0,0,-4.591,-4.5862,-4.5828,-4.5878,-4.5865,-4.5826,-4.5857,-4.5815,-4.5814,-4.5805,-4.5747,-4.5741,-4.5783,-4.5767,-4.5729,-4.5809,-4.5749,-4.5757,-4.5818,-4.5836,-4.585,-4.5853,-4.5647,0,0,0,0,0,-4.5938,-4.5952,-4.5909,-4.5957,-4.5952,-4.5906,-4.591,-4.5875,-4.5859,-4.5853,-4.5827,-4.5814,-4.5821,-4.5828,-4.5832,-4.589,-4.5881,-4.592,-4.5934,-4.5946,-4.5954,-4.5982,-4.5998,-4.5822,-4.5822,-4.5821,0,0,-4.5997,-4.5972,-4.5985,-4.5977,-4.5963,-4.5979,-4.5902,-4.5923,-4.5934,-4.5857,-4.5887,-4.5868,-4.5849,-4.5895,-4.5914,-4.5883,-4.6001,-4.5955,-4.5965,-4.5966,-4.5991,-4.6008,-4.6023,-4.5826,-4.5826,-4.5825,0,0,-4.6111,-4.6095,-4.6132,-4.6119,-4.6098,-4.6066,-4.6075,-4.6042,-4.6026,-4.6056,-4.5997,-4.601,-4.6024,-4.6013,-4.6009,-4.6118,-4.6073,-4.6121,-4.6195,-4.6223,-4.6237,-4.6249,-4.6287,-4.6302,-4.6128,-4.6129,-4.6129,0,-4.6187,-4.6209,-4.6157,-4.6181,-4.6179,-4.6108,-4.6145,-4.6135,-4.6117,-4.6117,-4.6082,-4.6097,-4.608,-4.6122,-4.6148,-4.6148,-4.6156,-4.6124,-4.6239,-4.6251,-4.6261,-4.6297,-4.6311,-4.6135,-4.6134,-4.6133,-4.6133,0,-4.6302,-4.6319,-4.6351,-4.6334,-4.6336,-4.6367,-4.6319,-4.6327,-4.6291,-4.6263,-4.6293,-4.627,-4.6268,-4.6275,-4.6241,-4.6311,-4.6293,-4.6249,-4.6188,-4.6285,-4.6317,-4.6331,-4.6143,-4.6141,-4.6139,-4.6138,0,0,-4.6482,-4.6434,-4.6447,-4.6438,-4.6409,-4.6421,-4.6447,-4.6444,-4.6452,-4.6442,-4.6462,-4.6475,-4.6434,-4.643,-4.6394,-4.6418,-4.6505,-4.6372,-4.637,-4.6397,-4.6581,-4.6614,-4.663,-4.6475,-4.6478,-4.6479,-4.6582,0,-4.6589,-4.6633,-4.6585,-4.6638,-4.6652,-4.6584,-4.6607,-4.6592,-4.6567,-4.6574,-4.6545,-4.6555,-4.6501,-4.6498,-4.6519,-4.649,-4.6541,-4.6482,-4.6494,-4.6495,-4.6501,-4.6647,-4.6682,-4.6781,-4.6595,-4.6597,-4.6598,0,-4.6721,-4.6716,-4.677,-4.6736,-4.674,-4.6762,-4.6754,-4.6763,-4.6743,-4.6723,-4.6717,-4.6673,-4.6696,-4.6636,-4.6668,-4.6629,-4.663,-4.6617,-4.6619,-4.6619,-4.6553,-4.6651,-4.6811,-4.6826,-4.6618,-4.6616,-4.6615,0,-4.6846,-4.6852,-4.6885,-4.6879,-4.6841,-4.6857,-4.6842,-4.682,-4.6821,-4.6814,-4.6814,-4.6811,-4.6809,-4.6808,-4.6763,-4.6724,-4.68,-4.6736,-4.6783,-4.6785,-4.6803,-4.6802,-4.6965,-4.6804,-4.6804,-4.6804,-4.6804,0,-4.6971,-4.7007,-4.694,-4.6961,-4.6998,-4.6943,-4.6982,-4.696,-4.694,-4.6955,-4.6896,-4.6911,-4.6851,-4.686,-4.6825,-4.6856,-4.6856,-4.684,-4.683,-4.6845,-4.6847,-4.6845,-4.6837,-4.6808,-4.6807,-4.6806,-4.6805,0,-4.7117,-4.7074,-4.7105,-4.7065,-4.7056,-4.7086,-4.7051,-4.7068,-4.7038,-4.7057,-4.7058,-4.7011,-4.7018,-4.6973,-4.6972,-4.6949,-4.6996,-4.6975,-4.7003,-4.6996,-4.7045,-4.7041,-4.7213,-4.7233,-4.706,-4.7062,-4.7063,0,-4.72,-4.7226,-4.7188,-4.7193,-4.7181,-4.719,-4.719,-4.7137,-4.7139,-4.7118,-4.7138,-4.7139,-4.7138,-4.7151,-4.7117,-4.7115,-4.7093,-4.7154,-4.7093,-4.7107,-4.7094,-4.7093,-4.7095,-4.7167,-4.7169,-4.7171,-4.7172,0,-4.7351,-4.7328,-4.733,-4.7325,-4.7326,-4.732,-4.7309,-4.7317,-4.7258,-4.7264,-4.727,-4.7269,-4.7266,-4.7269,-4.726,-4.7244,-4.7199,-4.7191,-4.7202,-4.7217,-4.7232,-4.7224,-4.7037,-4.7188,-4.7186,-4.7185,-4.7184,-4.7184,-4.7468,-4.7487,-4.7463,-4.7467,-4.7453,-4.7444,-4.7458,-4.7429,-4.7432,-4.7426,-4.7394,-4.7405,-4.7384,-4.7367,-4.7355,-4.7363,-4.7334,-4.735,-4.7354,-4.7359,-4.7367,-4.7231,-4.7361,-4.7361,-4.736,-4.736,-4.736,0,-4.7616,-4.7597,-4.7601,-4.7587,-4.759,-4.7546,-4.7532,-4.7537,-4.7548,-4.7531,-4.753,-4.7536,-4.7538,-4.7503,-4.75,-4.7513,-4.7492,-4.7514,-4.7512,-4.7509,-4.7394,-4.7384,-4.7531,-4.7531,-4.753,-4.753,-4.753,-4.753,-4.7693,-4.7723,-4.7697,-4.7719,-4.7699,-4.7709,-4.7705,-4.7696,-4.7682,-4.7691,-4.7692,-4.7669,-4.7645,-4.7639,-4.7638,-4.7628,-4.7629,-4.7658,-4.7641,-4.7534,-4.7517,-4.7502,-4.7493,-4.7659,-4.7659,-4.7755,-4.7756,-4.7757]}]]